RH
67 61 37 35 28 25 25 25 23 20 20 20 18 22 21 23 27 26 25 25 23 28 34 30 24 29 29 38 36 35 42 47 51 58 77 75 60 58 56 55 54 98 100 100 100 100 66
56 56 43 39 46 45 35 31 29 26 23 19 18 20 21 24 25 23 28 28 27 29 31 34 35 37 35 32 29 32 37 40 46 58 47 55 53 61 42 38 69 100 100 100 100 100 74
38 35 42 46 56 63 48 41 38 38 31 21 21 21 23 25 24 27 31 33 35 33 31 36 36 44 52 49 48 47 51 52 54 46 55 45 49 45 65 82 100 100 98 100 96 92 69
66 58 59 62 56 62 58 55 31 36 33 23 22 25 26 32 33 38 35 41 42 44 44 46 48 46 59 58 66 70 77 64 48 71 74 76 69 79 88 85 96 100 100 100 79 63 64
56 77 94 55 45 67 69 50 25 22 24 22 23 35 36 35 34 37 39 52 63 63 54 69 76 73 79 90 89 88 94 65 77 86 100 100 100 100 100 100 100 100 81 84 82 64 59
53 100 63 50 50 81 69 51 32 20 19 25 28 38 52 49 52 48 49 67 76 82 85 99 84 87 100 100 100 100 86 85 98 100 100 100 100 100 100 100 100 92 79 75 60 53 51
100 58 32 37 63 68 63 38 25 22 23 25 37 49 54 60 72 66 86 84 100 82 93 100 99 100 100 100 99 86 84 100 100 100 100 100 100 100 100 100 95 84 72 67 53 51 37
95 39 28 28 51 67 55 40 25 21 28 32 46 59 78 77 79 74 80 94 90 93 82 95 100 100 100 93 92 100 100 100 100 100 100 90 88 100 100 100 91 80 66 56 52 47 44
66 42 47 47 93 38 23 22 20 27 30 48 44 70 65 95 97 73 100 86 100 94 85 100 100 100 98 100 99 90 84 85 90 75 80 77 96 100 98 93 68 65 65 63 56 67 79
36 59 67 84 50 34 38 25 32 33 77 57 69 85 80 86 81 94 98 85 100 95 74 100 100 100 100 100 97 64 68 68 65 58 55 58 68 68 79 81 86 87 93 82 80 81 100
55 50 64 42 48 55 36 43 50 57 96 85 100 98 100 100 91 100 100 100 99 96 100 100 100 100 100 100 84 56 43 44 46 41 43 51 54 70 84 85 94 90 94 100 100 100 100
53 59 56 72 54 26 46 53 61 91 75 99 100 92 86 88 100 100 100 100 82 100 100 100 100 100 87 56 54 43 34 33 36 39 43 52 58 74 86 85 92 89 96 100 100 100 96
82 99 82 45 51 68 62 73 60 91 88 100 92 88 79 100 100 100 100 91 100 100 100 100 92 57 52 49 35 32 30 33 38 39 50 59 71 69 88 85 95 96 88 93 96 100 100
91 73 52 48 88 81 84 68 87 77 100 90 98 99 100 100 85 99 86 93 96 100 83 70 48 44 39 37 32 28 28 35 36 37 42 55 63 73 90 97 91 96 93 97 100 100 87
59 48 38 88 100 100 88 98 73 100 100 99 92 100 100 96 100 100 100 100 85 60 55 46 32 30 32 30 25 22 21 21 24 29 32 37 39 53 66 92 98 98 98 100 92 88 88
49 61 96 100 100 99 76 91 71 100 100 100 84 100 100 100 100 100 76 77 54 44 51 40 29 26 19 11 10 8 9 10 12 17 20 19 19 29 38 60 78 97 99 100 100 96 96
86 100 100 100 100 99 88 99 100 100 94 100 100 88 100 98 98 92 88 49 49 57 34 26 18 8 8 9 9 10 9 10 12 13 14 14 15 16 19 29 52 64 80 97 100 95 93
98 99 75 100 100 83 100 100 100 99 100 100 68 75 79 94 77 89 48 50 47 26 21 10 7 8 8 10 12 12 12 13 12 13 13 15 16 17 18 20 24 33 51 73 87 86 82
90 58 81 87 98 100 100 100 100 100 100 86 100 82 81 81 90 42 32 39 25 15 7 8 8 10 11 13 13 15 14 16 14 15 14 15 18 21 18 17 18 21 27 33 48 58 54
98 100 100 100 100 100 100 100 100 87 71 82 74 92 82 76 39 25 23 19 10 8 9 10 10 11 12 15 15 14 20 17 17 19 17 14 17 19 22 21 25 24 24 23 24 29 37
99 100 100 100 100 100 100 89 96 100 84 70 89 100 70 43 25 18 17 8 8 9 12 13 14 13 13 14 15 11 19 20 18 19 18 18 17 20 21 26 29 24 21 22 25 26 27
100 100 100 100 81 100 100 100 84 81 73 94 89 60 62 23 20 18 7 8 10 13 14 15 15 14 13 12 11 12 15 18 18 18 17 20 21 19 18 26 29 24 26 23 25 24 24
99 100 99 95 100 100 100 100 100 91 100 63 79 62 26 20 18 7 9 12 15 15 14 16 16 13 11 9 9 11 13 15 16 15 14 15 18 22 17 24 26 22 17 23 26 25 23
98 100 100 100 100 100 100 100 95 83 71 52 41 22 21 20 8 10 13 15 16 17 16 14 10 10 8 9 10 11 12 13 12 12 14 18 20 21 23 26 24 22 21 22 27 27 26
100 93 100 100 96 69 87 68 75 69 49 42 20 22 20 9 10 14 15 13 16 17 16 14 10 10 9 10 11 12 12 13 12 12 14 18 20 21 26 28 26 27 26 24 30 32 31
100 100 100 97 99 100 83 67 53 50 38 23 22 20 10 11 18 19 14 13 14 16 17 16 11 10 10 10 11 11 13 15 15 15 15 17 21 24 25 26 27 28 29 29 30 29 29
100 100 100 100 90 74 61 50 40 40 25 23 21 10 11 17 18 14 13 13 13 15 16 14 12 13 14 14 14 13 13 12 14 16 18 18 17 17 17 18 21 24 26 23 25 27 28
100 100 90 77 81 62 50 44 32 19 22 22 10 12 17 16 14 12 12 12 13 15 16 16 13 13 13 12 13 14 15 15 15 14 16 19 21 22 24 23 24 28 23 21 24 25 26
94 98 70 76 69 49 43 25 18 20 22 8 13 16 17 15 11 11 12 12 13 14 15 14 13 13 14 14 15 14 15 15 16 17 19 20 22 24 27 28 27 29 30 32 32 32 32
Wind_Speed
23 31 38 32 36 38 43 46 46 46 53 43 45 30 25 25 29 31 34 36 39 40 45 49 47 50 51 54 56 58 59 60 63 67 73 74 73 73 69 70 65 68 74 73 73 73 73
31 36 35 34 33 38 45 51 51 53 52 56 53 39 34 31 34 45 45 39 39 41 41 47 45 46 52 58 58 65 65 69 71 72 73 73 73 73 70 68 70 73 78 77 78 80 79
34 36 35 38 39 45 50 53 60 64 69 64 61 46 41 39 40 44 45 54 49 48 53 52 59 58 58 59 61 64 69 74 76 73 72 71 68 65 67 70 75 79 81 83 83 84 83
37 39 41 48 52 58 61 63 70 70 72 71 64 47 46 46 45 47 55 53 59 56 60 56 63 66 58 66 69 69 74 74 82 82 76 73 76 77 77 80 85 89 90 90 87 87 87
41 44 49 56 60 63 63 65 66 76 71 73 69 47 48 46 45 49 56 53 62 62 70 61 68 67 65 69 73 75 83 87 77 75 80 79 84 78 83 92 97 100 96 93 95 92 88
44 52 55 61 66 64 63 67 73 77 76 79 63 64 52 53 52 56 56 65 68 74 74 70 82 75 74 79 78 78 85 87 81 78 81 86 95 94 95 106 101 101 100 99 98 92 89
49 51 56 68 68 65 67 70 77 82 83 80 62 61 57 58 61 65 59 67 68 78 77 78 89 81 88 86 80 90 91 87 91 91 94 97 100 98 102 103 104 106 104 102 99 95 86
56 58 64 67 64 69 77 80 82 86 76 81 65 66 56 66 64 73 73 81 81 85 74 89 93 91 90 90 94 97 98 95 97 100 106 107 104 104 103 106 107 105 104 100 95 91 86
60 62 70 68 72 75 81 82 82 89 83 70 76 69 77 77 74 91 87 90 88 88 99 97 93 90 95 103 107 109 108 108 110 107 108 104 101 100 101 101 101 98 93 91 87 83 81
67 66 72 75 74 81 89 90 92 95 63 81 80 70 82 86 91 92 94 89 89 107 115 105 95 97 107 112 120 115 110 112 110 106 100 96 94 93 91 89 89 83 82 80 77 74 65
65 69 74 76 82 90 95 90 92 81 70 82 73 83 89 96 97 96 96 95 108 123 123 110 110 113 120 122 126 122 117 111 103 98 91 86 84 80 78 77 78 73 70 70 68 67 65
67 82 83 77 91 100 89 90 89 78 85 78 88 92 99 104 99 102 106 111 134 119 117 122 126 129 129 125 124 123 112 102 93 89 84 79 74 70 67 69 69 66 63 62 64 65 64
81 83 83 93 95 89 93 99 97 91 88 89 97 102 111 103 109 114 119 135 133 127 128 137 134 130 123 129 126 116 103 91 86 84 79 76 72 69 68 65 64 62 62 61 61 63 65
81 91 96 102 96 95 98 107 102 97 89 99 106 110 105 114 128 127 136 142 147 144 139 135 130 128 131 128 115 104 93 85 82 85 80 77 74 73 72 72 69 68 65 67 70 71 68
95 100 105 97 92 99 109 108 111 92 102 108 116 107 114 123 131 141 146 147 159 138 134 135 138 136 123 113 108 97 91 88 86 87 87 84 77 76 74 75 74 71 70 74 75 74 76
98 97 86 87 101 108 123 108 120 105 112 109 120 118 119 130 138 144 156 165 142 138 141 141 134 122 113 105 105 92 90 80 82 84 89 88 86 81 77 75 73 74 75 76 77 77 78
88 88 91 99 111 114 122 103 111 111 123 119 125 129 137 142 146 155 169 148 142 145 145 131 118 111 105 101 91 88 81 76 70 75 78 80 82 81 79 76 78 78 76 77 80 80 79
96 96 106 107 114 122 114 115 117 118 118 127 139 148 154 159 160 165 154 144 148 145 128 118 108 100 90 85 81 79 68 70 70 67 67 66 72 71 71 74 77 79 79 81 82 81 80
92 109 115 116 118 110 113 113 124 125 127 144 130 157 166 163 169 155 147 150 140 124 117 103 90 87 80 67 69 68 61 59 60 59 62 61 61 65 67 66 66 72 78 82 83 84 83
102 107 105 115 116 114 119 124 131 145 152 154 162 163 164 166 162 153 152 134 121 114 103 91 82 83 66 70 74 63 58 56 57 59 62 57 57 59 60 59 58 62 66 72 77 81 83
97 103 114 117 120 125 130 145 147 149 158 165 169 167 166 167 154 155 134 122 108 96 91 82 80 73 64 67 66 67 58 56 55 55 62 62 61 60 57 54 55 57 58 59 64 69 75
106 112 117 118 131 130 137 147 160 161 169 173 171 168 168 158 157 134 125 111 103 95 86 80 70 61 59 56 54 56 50 53 57 61 63 57 59 63 55 52 57 60 58 58 59 62 64
114 118 132 132 130 141 150 154 164 171 176 173 171 170 159 157 136 127 112 103 97 90 81 72 64 60 57 53 47 45 45 47 53 61 58 55 55 60 54 53 59 59 54 52 58 63 63
125 126 130 133 139 151 158 166 173 176 175 179 170 161 156 138 128 114 105 96 92 82 73 64 60 55 51 46 43 42 40 41 42 45 47 50 51 55 53 57 60 63 63 57 58 61 58
119 127 133 149 160 160 166 173 170 172 176 173 161 155 138 129 114 105 99 92 83 77 72 66 60 54 48 45 42 40 38 36 35 36 39 44 47 48 52 55 58 61 60 57 57 60 61
131 146 152 154 159 165 167 173 170 170 175 164 153 138 128 114 103 97 92 85 78 73 69 66 60 51 44 41 40 37 35 34 32 32 34 37 41 45 47 51 53 55 56 55 55 58 58
143 144 152 156 162 165 176 174 175 170 160 151 137 126 113 104 96 88 83 77 72 68 65 63 57 45 39 36 36 36 35 33 31 30 30 31 34 37 39 43 44 48 52 53 53 54 57
149 148 160 168 171 174 176 174 167 158 147 132 122 110 102 93 88 82 76 69 63 61 58 57 52 44 38 35 34 33 33 33 33 31 29 29 30 31 34 37 41 44 47 45 46 50 53
153 155 164 168 172 173 169 161 154 143 127 117 106 98 93 87 81 74 68 63 59 57 53 50 46 40 35 33 34 34 33 31 31 30 29 28 28 29 31 32 34 36 38 39 43 45 47
Wind_Direction
8 9 9 14 16 13 6 4 0 356 351 345 339 309 323 310 317 333 325 314 302 306 303 306 306 298 295 292 292 295 291 291 290 291 290 290 289 285 284 282 285 291 290 295 296 297 295
8 3 3 359 4 1 359 355 356 352 353 345 342 327 315 322 319 336 329 328 324 318 306 312 306 315 308 298 303 299 301 300 298 292 296 292 289 283 282 284 287 287 287 291 292 294 290
350 348 352 355 349 347 348 346 342 343 341 344 340 338 328 319 316 316 329 334 325 326 324 318 321 309 307 303 303 298 297 297 299 299 291 286 290 290 289 289 286 288 288 290 292 289 288
346 346 343 339 338 335 336 338 339 340 336 339 342 334 336 320 314 303 320 321 328 327 323 313 316 317 308 297 297 296 301 300 304 292 290 290 288 285 291 293 291 289 288 287 287 285 283
333 332 328 331 331 329 330 330 337 339 333 330 332 330 321 320 315 310 312 312 321 322 322 312 312 307 301 304 299 296 298 304 301 292 291 291 293 289 289 289 286 285 286 285 284 283 280
327 325 334 334 328 328 334 331 334 335 332 329 326 333 315 311 306 313 312 318 320 322 320 311 316 308 303 304 302 303 300 303 304 293 298 295 295 291 284 286 287 286 284 283 283 280 277
324 330 329 330 326 325 326 327 328 328 328 330 327 329 324 315 302 316 312 320 311 324 320 314 313 309 304 305 304 303 308 307 301 299 295 294 293 290 283 283 283 283 283 282 281 277 273
321 322 325 323 323 321 323 322 322 325 324 325 323 323 317 321 303 320 318 318 316 317 319 319 312 303 305 305 307 308 308 305 300 295 293 292 289 284 282 281 281 281 280 278 275 273 270
316 319 324 323 318 325 323 319 321 323 327 326 331 324 328 323 321 323 322 317 313 312 321 317 308 305 307 311 313 309 306 302 301 296 291 288 284 280 279 278 278 278 276 273 271 266 266
314 316 319 319 322 322 320 320 320 333 318 327 328 321 324 322 324 321 322 318 314 316 319 315 313 311 311 311 309 307 302 300 297 293 288 286 281 279 277 277 275 273 271 269 266 263 259
315 317 318 320 317 317 322 321 334 329 320 322 323 322 323 323 324 322 317 313 313 317 321 318 312 308 307 305 305 305 302 299 295 290 287 284 280 278 277 274 271 270 266 266 266 264 254
316 321 321 317 320 323 316 322 332 324 329 322 319 324 324 320 318 319 315 314 322 321 318 310 308 308 307 306 305 304 301 298 293 289 286 283 280 277 275 271 269 267 261 261 265 265 259
318 321 319 320 321 319 323 332 330 327 323 322 324 323 322 316 318 314 314 321 323 318 312 312 309 307 308 307 306 304 301 298 293 288 286 283 284 279 276 274 270 266 259 259 260 261 262
314 317 320 323 321 321 326 328 326 326 322 321 321 318 319 314 317 316 319 321 320 316 312 309 309 308 308 307 305 303 300 296 292 289 285 282 279 280 277 275 272 269 264 261 260 260 260
316 319 319 321 321 324 326 327 325 320 320 319 322 316 314 314 314 319 320 318 316 314 312 311 310 310 308 305 301 299 297 292 289 285 284 279 276 274 273 270 268 266 265 261 259 259 260
317 317 323 320 322 322 324 325 325 320 318 317 319 316 313 315 317 317 316 318 316 314 313 313 311 309 307 303 299 296 289 288 285 282 277 275 274 270 269 267 265 264 262 261 261 259 260
316 324 319 319 324 324 323 319 318 317 318 317 315 319 316 315 313 311 317 318 317 315 314 312 310 308 305 301 297 294 294 289 281 275 275 275 273 271 267 265 262 261 262 262 261 261 260
320 319 322 321 321 320 319 316 317 313 313 315 319 318 318 316 320 319 320 317 315 315 313 312 310 308 306 301 296 291 289 284 280 279 275 273 272 272 270 265 261 260 260 261 261 261 261
316 318 320 319 320 318 314 315 314 314 312 314 316 317 321 321 320 319 318 317 316 314 313 312 310 310 307 306 303 294 291 285 284 280 278 275 275 271 269 268 265 261 258 258 259 260 261
314 318 314 318 319 314 314 314 313 316 318 318 319 321 321 320 319 319 317 318 318 317 316 313 311 311 303 304 302 298 283 279 282 283 279 274 270 270 270 269 264 262 260 259 258 258 259
314 314 315 316 317 313 312 315 315 315 318 319 323 319 320 320 319 319 320 320 318 318 318 317 314 310 302 301 300 301 282 273 276 284 282 276 275 273 269 270 266 265 263 259 259 260 259
308 311 314 313 314 311 312 314 316 320 320 321 320 321 319 320 320 321 321 321 320 320 320 319 314 315 311 306 300 299 287 273 271 277 279 274 272 269 263 264 262 266 263 266 264 260 258
307 310 311 311 309 311 315 314 317 319 319 319 321 319 321 319 321 322 322 322 322 322 321 320 318 316 314 311 305 296 290 282 277 277 275 273 273 271 268 264 263 267 267 262 259 262 263
308 311 311 310 311 314 316 315 317 318 319 320 320 320 319 321 322 323 323 325 324 323 322 323 324 321 319 312 307 302 298 292 284 279 274 272 269 269 268 267 268 270 272 271 265 264 259
308 308 307 309 311 313 313 315 318 318 319 318 320 319 321 323 323 323 324 324 323 324 326 329 327 324 321 316 311 307 305 302 296 285 275 269 268 268 267 265 267 270 273 274 270 268 266
304 307 307 310 311 312 314 317 318 316 317 318 319 321 323 323 323 322 323 324 325 326 327 327 328 325 318 316 315 314 311 309 305 298 287 278 271 267 266 266 266 269 271 271 270 268 268
306 307 309 310 310 314 314 316 317 316 317 318 320 322 323 324 323 322 322 324 325 325 325 326 328 324 319 319 320 318 317 315 310 302 294 284 277 273 271 270 270 272 272 270 269 269 268
305 307 307 307 312 313 313 315 315 316 317 319 321 323 323 322 323 322 323 324 326 326 327 326 325 326 326 327 327 323 318 315 313 309 301 295 291 286 280 278 275 273 270 273 277 275 274
305 306 309 308 312 311 313 314 314 316 318 320 322 323 322 322 322 323 325 326 328 327 325 325 328 327 328 333 332 327 322 317 313 311 306 301 295 289 283 278 277 277 277 276 276 276 275